Regional Weather Roundup
Issued by NWS Sioux Falls, SD

Home | Current Version | Previous Version | Graphics & Text | Print | Product List | Glossary On
Versions: 1 2 3 4 5 6 7 8 9 10 11 12 13 14 15 16 17 18 19 20 21 22 23 24 25 26 27 28 29 30 31 32 33 34 35 36 37 38 39 40 41 42 43 44 45 46 47 48 49 50
000
ASUS43 KFSD 221802
RWRFSD

WEATHER ROUNDUP FOR SE SOUTH DAKOTA/SW MINNESOTA/NW IOWA
NATIONAL WEATHER SERVICE SIOUX FALLS SD
1200 PM CST WED NOV 22 2017

NOTE: "FAIR" INDICATES FEW OR NO CLOUDS BELOW 12,000 FEET WITH NO
SIGNIFICANT WEATHER AND OR OBSTRUCTIONS TO VISIBILITY.


SDZ038>040-050-052>070-221900-
SOUTHEAST SOUTH DAKOTA

CITY           SKY/WX    TMP DP  RH WIND       PRES   REMARKS
BROOKINGS      CLOUDY    31  14  49 S17       30.09F WCI  19
CHAMBERLAIN    CLOUDY    44  27  52 S8        30.00F
6HR MIN TEMP:  19; 6HR MAX TEMP:  44;

HURON          CLOUDY    31  17  56 S15G22    30.05F WCI  20
6HR MIN TEMP:  12; 6HR MAX TEMP:  31;

MADISON        FAIR      32  14  47 S22       30.08F WCI  19
MITCHELL       CLOUDY    36  17  46 S13       30.08F
6HR MIN TEMP:  13; 6HR MAX TEMP:  36;

SIOUX FALLS    PTSUNNY   33  15  47 S18       30.14F WCI  22
6HR MIN TEMP:  12; 6HR MAX TEMP:  33;

WINNER         FAIR      51  32  48 SW10      30.01F
YANKTON        CLOUDY    36  16  44 S13       30.14F
$$

MNZ071-072-080-081-089-090-097-098-221900-
SOUTHWEST MINNESOTA

CITY           SKY/WX    TMP DP  RH WIND       PRES   REMARKS
FAIRMONT       CLOUDY    27  13  55 S15       30.22F WCI  15
JACKSON        MOSUNNY   28  12  50 S18       30.19F WCI  16
MARSHALL       CLOUDY    30  14  51 S20G25    30.13F WCI  17
6HR MIN TEMP:  11; 6HR MAX TEMP:  30;

MONTEVIDEO     CLOUDY    27  12  54 SW14G21   30.12F WCI  15
PIPESTONE      SUNNY     28  10  47 SW18      30.11F WCI  16
REDWOOD FALLS  CLOUDY    27  10  49 S16       30.17F WCI  15
WINDOM         MOSUNNY   28  10  47 S17       30.18F WCI  16
WORTHINGTON    MOSUNNY   29  13  51 S22       30.16F WCI  15
$$

IAZ001>003-012>014-020>022-031-032-NEZ013-014-SDZ071-221900-
NORTHWEST IOWA

CITY           SKY/WX    TMP DP  RH WIND       PRES   REMARKS
CHEROKEE       SUNNY     31  12  45 S14       30.24F WCI  21
DENISON        SUNNY     34  14  44 SW15G23   30.28F WCI  24
ESTHERVILLE    MOSUNNY   28  12  51 SW17      30.20F WCI  16
LE MARS        CLOUDY    32  14  47 S20G25    30.21F WCI  20
ORANGE CITY    SUNNY     30  14  51 S18       30.19F WCI  18
SHELDON        MOSUNNY   30  10  43 SW18      30.18F WCI  18
SIOUX CITY     CLOUDY    32  14  47 S18       30.25F WCI  20
6HR MIN TEMP:   9; 6HR MAX TEMP:  33;

SPENCER        MOSUNNY   29  11  47 S17       30.21F WCI  17
6HR MIN TEMP:   7; 6HR MAX TEMP:  29;

STORM LAKE     SUNNY     30  12  47 SW18      30.23F WCI  18
$$

ABBREVIATIONS USED IN REMARKS
   TC - TEMPERATURE IN CELSIUS
  WCI - WIND CHILL INDEX
   HX - HEAT INDEX
  VSB - VISIBILITY




USA.gov is the U.S. government's official web portal to all federal, state and local government web resources and services.